ANA1989 RJTT-RJBB

Flight info

Callsign ANA1989
Flight time N/A
Altitude 30000
Route LAXAS Y56 TOHME Y54 KOHWA Y544 DUBKA
Aircraft B77L/H-SDE1E2E3FGHIJ2J3J4J5M1RWXY/LB1D1

Departure

Time 2026-02-22 06:31
Airport Tokyo Haneda International Airport (RJTT)

Arrival

Time N/A
Airport Kansai International Airport (RJBB)
Time Latitude Longitude Altitude Speed Heading
2026-02-22 05:56 35.55987 139.78326 28 ft 0 kts 240°
2026-02-22 06:14 35.55988 139.78328 28 ft 1 kts 240°
2026-02-22 06:15 35.55997 139.78346 28 ft 3 kts 238°
2026-02-22 06:15 35.56007 139.78367 26 ft 3 kts 237°
2026-02-22 06:15 35.56018 139.78388 27 ft 2 kts 238°
2026-02-22 06:15 35.56026 139.78404 27 ft 3 kts 251°
2026-02-22 06:16 35.56029 139.78424 26 ft 3 kts 298°
2026-02-22 06:16 35.56016 139.78440 25 ft 3 kts 329°
2026-02-22 06:16 35.56002 139.78450 26 ft 1 kts 329°
2026-02-22 06:16 35.55999 139.78453 25 ft 0 kts 329°
2026-02-22 06:21 35.56006 139.78447 27 ft 4 kts 329°
2026-02-22 06:21 35.56050 139.78416 28 ft 11 kts 330°
2026-02-22 06:21 35.56137 139.78355 28 ft 18 kts 330°
2026-02-22 06:21 35.56243 139.78269 28 ft 18 kts 310°
2026-02-22 06:22 35.56215 139.78126 28 ft 19 kts 239°
2026-02-22 06:22 35.56150 139.78208 28 ft 1 kts 240°
2026-02-22 06:22 35.56149 139.78207 28 ft 0 kts 240°
2026-02-22 06:22 35.56149 139.78206 28 ft 0 kts 239°
2026-02-22 06:23 35.56151 139.78210 28 ft 2 kts 238°
2026-02-22 06:24 35.56160 139.78227 28 ft 2 kts 239°
2026-02-22 06:24 35.56168 139.78244 28 ft 2 kts 241°
2026-02-22 06:24 35.56175 139.78262 28 ft 2 kts 254°
2026-02-22 06:24 35.56179 139.78282 28 ft 2 kts 266°
2026-02-22 06:25 35.56179 139.78302 28 ft 2 kts 277°
2026-02-22 06:25 35.56175 139.78321 28 ft 2 kts 297°
2026-02-22 06:25 35.56171 139.78331 28 ft 1 kts 322°
2026-02-22 06:25 35.56170 139.78332 28 ft 0 kts 324°
2026-02-22 06:26 35.56171 139.78332 28 ft 0 kts 324°
2026-02-22 06:26 35.56198 139.78312 28 ft 11 kts 329°
2026-02-22 06:26 35.56254 139.78232 28 ft 13 kts 274°
2026-02-22 06:27 35.56217 139.78126 28 ft 14 kts 238°
2026-02-22 06:27 35.56184 139.78057 26 ft 0 kts 232°
2026-02-22 06:27 35.56183 139.78050 26 ft 2 kts 261°
2026-02-22 06:27 35.56174 139.77999 28 ft 11 kts 245°
2026-02-22 06:28 35.56116 139.77878 28 ft 22 kts 238°
2026-02-22 06:28 35.56028 139.77701 28 ft 23 kts 238°
2026-02-22 06:28 35.55923 139.77499 28 ft 33 kts 236°
2026-02-22 06:28 35.55882 139.77415 28 ft 14 kts 240°
2026-02-22 06:29 35.55860 139.77369 26 ft 11 kts 237°
2026-02-22 06:29 35.55812 139.77311 27 ft 10 kts 219°
2026-02-22 06:29 35.55757 139.77264 27 ft 10 kts 213°
2026-02-22 06:29 35.55700 139.77217 28 ft 10 kts 214°
2026-02-22 06:30 35.55639 139.77184 28 ft 10 kts 184°
2026-02-22 06:30 35.55545 139.77231 28 ft 23 kts 150°
2026-02-22 06:30 35.55300 139.77402 29 ft 76 kts 150°
2026-02-22 06:30 35.54606 139.77885 30 ft 150 kts 152°
2026-02-22 06:31 35.53623 139.78571 558 ft 168 kts 153°
2026-02-22 06:31 35.52599 139.79330 1420 ft 171 kts 155°
2026-02-22 06:31 35.51576 139.80050 2448 ft 170 kts 158°
2026-02-22 06:31 35.50462 139.80823 2919 ft 201 kts 157°
2026-02-22 06:32 35.49136 139.81747 3243 ft 238 kts 156°
2026-02-22 06:32 35.47644 139.82804 4007 ft 255 kts 156°
2026-02-22 06:32 35.46081 139.83916 4989 ft 264 kts 155°
2026-02-22 06:32 35.44448 139.84956 5896 ft 265 kts 167°
2026-02-22 06:33 35.42638 139.85038 6788 ft 262 kts 199°
2026-02-22 06:33 35.41029 139.84065 7809 ft 257 kts 218°
2026-02-22 06:33 35.39634 139.82746 8732 ft 263 kts 221°
2026-02-22 06:33 35.38200 139.81345 9811 ft 265 kts 221°
2026-02-22 06:34 35.36745 139.79922 10704 ft 274 kts 221°
2026-02-22 06:34 35.35175 139.78394 11070 ft 304 kts 221°
2026-02-22 06:34 35.33421 139.76697 11333 ft 338 kts 220°
2026-02-22 06:34 35.31517 139.74868 12018 ft 355 kts 220°
2026-02-22 06:35 35.29587 139.72958 13236 ft 358 kts 222°
2026-02-22 06:35 35.27673 139.70961 14337 ft 365 kts 223°
2026-02-22 06:35 35.25747 139.68912 15355 ft 367 kts 224°
2026-02-22 06:35 35.24082 139.66511 16190 ft 375 kts 239°
2026-02-22 06:36 35.22989 139.63610 17244 ft 378 kts 251°
2026-02-22 06:36 35.22346 139.60488 18286 ft 381 kts 258°
2026-02-22 06:36 35.21848 139.57270 19082 ft 389 kts 258°
2026-02-22 06:36 35.21368 139.53997 19945 ft 394 kts 259°
2026-02-22 06:37 35.20889 139.50687 20863 ft 397 kts 259°
2026-02-22 06:37 35.20400 139.47353 21765 ft 401 kts 259°
2026-02-22 06:37 35.19904 139.44018 22613 ft 406 kts 259°
2026-02-22 06:37 35.19389 139.40605 23439 ft 411 kts 259°
2026-02-22 06:38 35.18862 139.37150 24164 ft 416 kts 259°
2026-02-22 06:38 35.18326 139.33663 24896 ft 419 kts 259°
2026-02-22 06:38 35.17784 139.30159 25639 ft 422 kts 259°
2026-02-22 06:38 35.17235 139.26620 26359 ft 425 kts 259°
2026-02-22 06:39 35.16680 139.23054 27044 ft 429 kts 259°
2026-02-22 06:39 35.16119 139.19459 27698 ft 433 kts 259°
2026-02-22 06:39 35.15552 139.15833 28340 ft 436 kts 259°
2026-02-22 06:39 35.14980 139.12175 28988 ft 440 kts 260°
2026-02-22 06:40 35.14402 139.08491 29585 ft 443 kts 259°
2026-02-22 06:40 35.13820 139.04787 30150 ft 444 kts 260°
2026-02-22 06:40 35.12690 138.97623 30115 ft 440 kts 260°
2026-02-22 06:41 35.11526 138.90268 30124 ft 442 kts 260°
2026-02-22 06:41 35.10351 138.82902 30120 ft 442 kts 259°
2026-02-22 06:42 35.09178 138.75541 30118 ft 441 kts 259°
2026-02-22 06:42 35.08589 138.71859 30119 ft 441 kts 259°